Location: Albany
(35.0170°S, 117.8920°E)
Time: 03:58:54
(UTC+08:00)

Vanguard 1 - Pass Details

Date: 28 January 2021
Orbit: 649 x 3833 km, 34.2° (Epoch: 26 February)

Event Time Altitude Azimuth Distance (km) Brightness Sun altitude
Rises 22:36:09 0° 315° (NW) 5,900 13.9 -31.4°
Reaches altitude 10° 22:41:09 10° 323° (NW) 4,332 13.1 -31.9°
Enters shadow 22:41:25 11° 323° (NW) 4,245 13.1 -31.9°
Maximum altitude 22:50:12 33° 22° (NNE) 1,983 - -32.7°
Drops below altitude 10° 22:55:48 10° 85° (E) 2,648 - -33.2°
Sets 22:58:06 0° 95° (E) 3,373 - -33.4°
